Regional Weather Roundup
Issued by NWS Northern Indiana

Home | Current Version | Previous Version | Text Only | Print | Product List | Glossary Off
Versions: 1 2 3 4 5 6 7 8 9 10 11 12 13 14 15 16 17 18 19 20 21 22 23 24 25 26 27 28 29 30 31 32 33 34 35 36 37 38 39 40 41 42 43 44 45 46 47 48 49 50

979
ASUS43 KIWX 110710
RWRIWX

KIWX WEATHER ROUNDUP
NATIONAL WEATHER SERVICE NORTHERN INDIANA
200 AM EST MON DEC 11 2017

NOTE: "FAIR" INDICATES FEW OR NO CLOUDS BELOW 12,000 FEET WITH NO
SIGNIFICANT WEATHER AND/OR OBSTRUCTIONS TO VISIBILITY.

* THESE STATIONS ARE NOT UNDER NWS QUALITY CONTROL. THEY ALSO MAY NOT
  REPORT WEATHER SUCH AS PRECIPITATION OR FOG.

INZ001>027-110800-
NORTHERN INDIANA

CITY           SKY/WX    TMP DP  RH WIND       PRES   REMARKS
GARY*          MOCLDY    28  19  66 SW3       30.08S
VALPARAISO     CLOUDY    28  21  75 SW5       30.06F WCI  23
MICHIGAN CITY* CLOUDY    30  19  64 CALM      30.06S
LAPORTE*       MOCLDY    28  22  78 W3        30.06S
KNOX*          CLOUDY    28  23  80 W7        30.07S WCI  21
SOUTH BEND     CLOUDY    27  22  81 W7        30.04F WCI  19
GOSHEN         CLOUDY    27  21  78 W6        30.03F WCI  20
MONTICELLO*    CLEAR     19  15  86 CALM      30.07F
LOGANSPORT*    CLOUDY    27  21  80 W5        30.08S WCI  21
ROCHESTER*     CLOUDY    30  23  74 W5        30.07R WCI  25
WARSAW*        CLOUDY    28  23  80 W5        30.04F WCI  23
AUBURN*        CLOUDY    30  23  74 CALM      30.04S
FORT WAYNE     MOCLDY    30  23  75 NW5       30.04F WCI  25
HUNTINGTON*    MOCLDY    29  22  74 W3        30.05S
PERU/GRISSOM   PTCLDY    25  21  84 W5        30.06S WCI  19
MARION*        LGT SNOW  28  23  81 CALM      30.07S

$$
INZ028>050-110800-
CENTRAL INDIANA

CITY           SKY/WX    TMP DP  RH WIND       PRES   REMARKS
LAFAYETTE      CLOUDY    21  19  92 CALM      30.09F
KOKOMO*        PTCLDY    25  19  80 W5        30.07F WCI  19
MUNCIE*        CLOUDY    30  22  72 NW7       30.06S WCI  23
INDIANAPOLIS   CLEAR     25  20  81 W3        30.09S

$$
MIZ043>046-050>051-056>058-064>065-071>073-077>080-110800-
SOUTHWEST LOWER MICHIGAN

CITY           SKY/WX    TMP DP  RH WIND       PRES   REMARKS
BATTLE CREEK   CLOUDY    27  21  78 W3        30.00F
BENTON HARBOR  CLOUDY    31  19  61 W5        30.03F WCI  26
COLDWATER*     CLOUDY    27  22  84 CALM      30.00F
HILLSDALE*     CLOUDY    27  21  80 W3        29.99S
HOLLAND        CLOUDY    28  20  71 NE3       30.03S
GRAND RAPIDS   CLOUDY    26  22  84 CALM      30.02R
KALAMAZOO      CLOUDY    27  21  78 SW3       30.01F
STURGIS*       CLOUDY    26  22  87 CALM      30.01S
THREE RIVERS*  CLOUDY    28  23  81 CALM      30.02F

$$
OHZ001>008-015>018-024>025-110800-
NORTHWEST OHIO

CITY           SKY/WX    TMP DP  RH WIND       PRES   REMARKS
WAUSEON*         N/A     27  23  86 W3        30.02S
DEFIANCE       CLOUDY    29  21  72 W3        30.04F
FINDLAY        MOCLDY    29  20  69 NW14      30.03R WCI  18
TOLEDO EXPRESS PTCLDY    23  21  92 W6        30.03R WCI  16
TOLEDO METCALF PTCLDY    26  19  74 NW8       30.03R WCI  18
LIMA           CLOUDY    30  24  78 NW10      30.03R WCI  21

$$
AND FOR LAKE MICHIGAN COASTAL AND OPEN LAKE BUOY OBSERVATIONS

STATION/POSITION TEMP    WIND        PRES    VSBY  WAVE
                 AIR SEA DIR/SP/G                  HT/PER
                 (F)     (DEG/KT/KT) (MB)    (MI)  (FT/S)
CALUMET HARBOR           240/  2/  3 1017.5F
MICHIGAN CITY     31     290/  9/ 10   N/A
BURNS HARBOR      31     340/  3/  5 1018.3F
SAINT JOSEPH      32     310/  6/  9 1017.3

$$
&&




USA.gov is the U.S. government's official web portal to all federal, state and local government web resources and services.